Location: Chipmunk Meadow
(41.1540°N, 122.8814°W)
Time: 15:31:27
(UTC+00:00)

Cosmos 1461 - Pass Details

Date: 13 April 2024
Orbit: 499 x 586 km, 65.0° (Epoch: 21 May)

Event Time Altitude Azimuth Distance (km) Brightness Sun altitude
Rises 12:15:15 0° 321° (NW) 2,611 6.2 -14.8°
Reaches altitude 10° 12:17:29 10° 314° (NW) 1,714 5.1 -14.4°
Maximum altitude 12:21:06 42° 243° (WSW) 719 2.9 -13.8°
Drops below altitude 10° 12:24:41 10° 172° (S) 1,695 5.1 -13.2°
Sets 12:26:54 0° 165° (SSE) 2,577 6.1 -12.8°
